{"data":{"norad_id":53221,"intl_designator":"2022-084AJ","name":"STARLINK-4377","alt_names":[],"object_type":"PAYLOAD","status":"ACTIVE","operator":null,"country":"US","launch_date":"2022-07-22","launch_site_code":"AFWTR","launch_vehicle":null,"mission":null,"orbit_class":"UNKNOWN","rcs_meters":null,"size_class":null,"mass_kg":null,"dimensions":null,"purposes":["comms"],"wikipedia_slug":null,"has_3d_model":false,"image_url":null,"decayed_at":null,"tle_current":{"epoch":"2026-09-19T22:52:13.253952Z","epoch_age_seconds":119515,"freshness":"FRESH","line1":"1 53221U 22084AJ  26262.95293118  .00000899  00000+0  30179-4 0  9994","line2":"2 53221  97.2840 317.8246 0001152  95.1023 265.0351 15.33439841228617","mean_motion":15.33439841,"eccentricity":0.0001152,"inclination_deg":97.284,"raan_deg":317.8246,"arg_perigee_deg":95.1023,"mean_anomaly_deg":265.0351,"bstar":3.0179e-5,"rev_number":22861,"period_min":93.90652058844,"perigee_km":464.77013035113,"apogee_km":466.34691779987,"semimajor_km":6843.6955240755,"source":"CELESTRAK","updated_at":"2026-09-20T09:00:40.194882Z"}}}